Theta_e
311 311 310 309 310 312 313 313 313 314 315 316 317 318 318 318 317 314 317 318 318 318 319 319 319 320 321 321 321 317 310 311 317 320 319 318 320 321 323 324 324 323 324 326 345
311 310 309 309 312 313 313 313 313 315 316 317 317 318 317 316 315 315 317 319 319 320 320 320 320 320 321 320 319 313 310 314 317 316 318 318 320 319 322 322 323 324 325 331 347
310 309 309 311 313 314 314 314 314 316 316 317 317 317 317 317 317 319 319 319 319 320 320 320 320 320 319 318 319 314 314 316 320 319 319 318 319 319 320 320 323 322 336 341 347
310 309 310 313 315 315 314 314 315 316 316 317 316 314 319 318 311 319 319 319 320 320 320 320 321 319 315 315 317 317 317 319 320 320 319 318 319 318 320 320 323 323 324 337 350
310 310 312 314 315 315 314 313 314 314 315 315 314 318 321 318 317 318 319 319 320 320 320 320 320 320 317 316 317 318 318 318 319 318 319 319 318 318 320 323 323 323 322 327 336
311 310 312 315 315 315 315 313 313 313 313 313 316 318 321 318 319 319 320 320 320 320 320 320 320 321 319 318 317 318 318 318 319 319 318 319 319 320 319 321 321 322 321 321 322
311 312 312 314 315 315 315 314 313 312 312 314 316 320 319 319 319 319 320 320 320 320 320 320 320 321 321 318 320 319 318 314 317 318 318 320 319 319 318 319 320 321 321 320 321
312 312 312 313 314 314 313 313 313 313 313 315 315 321 323 319 319 319 320 320 320 320 321 321 321 321 321 321 319 317 314 315 316 316 317 318 316 316 319 320 320 319 320 320 320
311 312 313 313 313 313 312 312 312 312 313 313 315 319 321 321 320 320 320 320 321 322 322 322 321 320 321 316 316 313 317 318 317 317 316 316 317 317 319 318 317 318 318 318 319
310 311 312 312 312 312 314 321 322 314 314 313 314 315 322 321 320 320 320 321 321 321 321 321 320 314 312 314 318 317 317 317 317 316 315 315 316 315 316 318 316 317 317 318 319
311 311 311 311 312 313 320 323 321 323 320 321 320 321 321 321 321 320 321 321 321 321 317 318 315 316 316 316 317 317 317 317 317 316 317 316 315 313 317 318 318 318 320 320 316
312 310 311 312 314 319 320 320 321 321 320 321 321 322 323 321 320 320 321 321 320 317 317 315 317 319 318 318 317 317 317 317 316 316 316 315 315 316 317 318 318 318 319 322 324
310 310 312 316 320 322 323 322 322 321 320 321 321 323 322 320 320 321 321 321 319 319 318 318 318 320 319 318 318 317 317 317 316 316 315 315 314 315 317 317 319 318 319 321 322
310 312 314 321 322 321 320 319 320 320 318 321 324 323 323 320 321 321 322 322 320 321 320 320 319 318 316 318 316 317 316 317 317 316 316 314 314 316 317 315 317 318 317 318 319
312 317 323 322 321 321 321 321 319 323 328 325 320 320 320 320 321 322 322 322 321 320 318 320 317 317 317 318 317 317 316 316 317 314 313 314 314 314 314 315 315 318 319 318 317
312 321 321 322 321 320 321 321 320 324 331 321 320 320 319 319 321 322 322 322 321 319 319 318 318 316 318 318 317 315 315 311 310 311 313 316 315 312 316 317 316 317 319 319 318
316 313 316 321 321 319 321 320 322 327 324 321 321 320 319 320 320 322 321 319 319 322 320 318 319 318 317 316 314 311 310 310 313 312 312 312 314 312 315 316 316 317 318 318 318
316 316 316 321 320 319 324 319 326 325 323 322 322 319 321 321 321 322 319 319 318 317 317 319 320 317 315 316 316 314 311 311 317 314 314 312 316 316 315 315 317 317 316 316 316
320 320 322 322 320 320 325 322 324 322 321 323 321 320 320 321 320 320 320 320 319 317 318 318 319 316 315 316 314 315 314 312 313 312 314 313 315 315 314 313 313 315 316 315 315
325 323 326 326 320 324 323 326 320 320 321 320 321 320 321 320 320 319 320 321 319 317 316 316 315 315 317 315 314 314 313 313 311 317 319 316 317 317 314 312 311 311 313 312 312
323 328 321 319 319 323 327 325 320 320 321 319 319 320 320 320 319 319 321 320 319 317 316 313 312 313 314 314 315 313 313 312 311 312 316 317 315 315 314 311 311 312 313 312 312
319 321 319 319 319 320 320 322 321 320 319 318 319 319 318 318 318 318 320 319 317 316 316 314 312 315 314 313 312 314 316 312 310 314 312 313 315 313 312 312 312 312 312 312 311
321 322 321 321 317 315 317 319 318 318 317 317 318 318 316 317 317 317 319 317 317 316 315 311 307 306 309 309 312 316 316 314 309 308 313 311 314 312 312 312 312 312 312 311 311
321 316 320 320 318 316 317 318 317 318 318 316 315 317 316 316 314 316 315 317 317 319 314 312 308 310 310 311 313 316 315 314 312 305 312 313 314 313 312 311 311 311 311 311 311
318 316 315 314 316 317 317 317 319 317 316 315 314 314 316 316 313 316 315 314 317 316 315 310 313 311 312 313 316 316 316 316 315 314 314 313 314 314 311 310 311 311 311 311 310
314 314 315 316 317 317 315 316 315 314 314 315 313 313 313 312 313 314 315 314 313 313 313 310 310 314 316 316 317 317 316 315 315 315 314 314 314 311 312 311 310 311 311 310 310
310 312 314 315 314 313 314 314 314 314 314 314 313 311 313 314 315 315 315 315 314 311 309 310 311 312 316 316 314 313 315 315 315 314 314 311 310 310 310 310 311 311 310 310 309
Wind_Speed
5 4 3 4 8 9 7 5 5 6 7 6 6 5 6 8 5 4 7 8 8 9 10 11 8 10 9 3 1 1 5 2 2 2 3 5 4 2 4 6 1 7 20 15 25
4 4 4 8 10 8 7 6 6 7 6 5 4 5 9 8 9 13 12 12 13 15 14 16 12 12 3 2 1 4 4 6 3 6 1 4 6 3 3 4 8 24 20 20 30
5 4 7 11 10 9 8 7 7 6 4 3 2 6 10 5 10 11 12 14 18 15 13 16 11 7 4 3 1 4 5 6 2 4 5 4 5 5 11 2 16 28 26 24 28
6 7 10 11 9 9 8 8 6 4 2 2 4 8 9 4 4 9 12 13 15 18 16 12 17 6 6 5 4 2 3 4 7 3 0 2 4 5 2 3 18 20 29 30 34
7 8 10 9 8 8 7 6 4 2 1 3 6 9 7 5 4 6 10 12 11 14 17 16 16 9 4 6 3 4 2 3 4 3 4 3 4 3 4 10 18 18 22 29 31
7 7 8 8 6 6 5 5 3 1 1 3 5 9 5 2 8 5 5 10 12 13 15 18 9 10 2 4 4 3 3 4 2 3 2 3 2 4 7 13 17 20 19 22 30
7 6 6 5 3 2 2 2 2 0 1 2 7 11 4 3 2 3 7 11 8 10 15 14 13 12 8 3 8 2 6 8 3 3 2 4 3 4 11 4 9 20 25 22 26
5 6 5 3 2 1 1 1 1 1 1 3 6 9 4 2 3 3 6 8 8 8 12 13 12 11 4 7 7 6 6 6 6 11 6 5 6 6 22 18 12 13 28 27 26
4 5 4 3 1 0 1 2 2 1 3 5 6 6 4 2 1 1 4 9 14 12 13 11 9 4 6 4 5 7 1 3 8 12 5 6 4 7 18 22 22 21 16 26 25
3 4 4 3 1 1 4 4 2 1 2 6 7 6 4 2 2 1 4 9 15 16 10 11 5 4 5 5 1 2 2 2 3 7 8 7 7 8 29 27 22 23 19 18 24
3 4 4 3 2 4 7 4 4 1 11 5 6 8 8 3 4 3 3 7 13 13 6 8 8 5 10 4 2 3 3 1 2 0 1 4 3 9 14 24 25 28 28 20 16
4 4 5 4 6 7 9 10 9 6 7 6 11 12 10 6 4 3 0 4 6 4 6 7 4 3 7 2 4 4 3 3 4 4 2 4 5 5 11 14 21 25 30 27 21
5 5 6 8 7 6 6 8 5 7 2 8 6 8 6 6 2 6 1 2 4 5 5 3 3 5 2 2 4 2 3 3 5 4 3 4 3 3 3 13 20 29 31 32 27
5 6 8 6 6 7 11 7 7 5 4 5 2 2 8 5 2 7 2 1 4 1 2 1 10 7 8 6 1 2 4 2 2 3 1 4 4 2 1 6 12 22 28 28 29
3 7 5 4 5 8 7 4 6 1 3 1 2 2 5 6 9 6 4 2 2 2 6 2 6 6 10 3 3 3 3 4 1 4 3 5 3 4 4 5 7 13 17 19 21
0 5 4 2 4 7 8 6 1 5 2 4 1 2 3 2 5 7 2 2 2 5 3 4 5 5 1 2 3 5 3 6 5 3 3 3 4 4 1 2 3 5 9 11 13
3 5 6 1 5 8 3 3 4 3 4 6 2 1 1 2 3 3 4 5 2 3 4 5 2 2 6 6 6 9 6 4 5 5 4 4 2 6 5 2 2 4 8 9 8
2 4 5 3 6 8 3 5 4 2 3 2 3 4 5 6 4 3 4 4 7 4 3 2 6 5 6 2 4 4 5 4 3 2 6 7 5 1 3 9 5 6 6 9 9
2 4 3 2 4 7 2 5 2 1 3 4 3 7 6 6 5 5 5 3 1 3 5 3 5 3 7 4 3 5 4 2 2 2 2 4 3 4 2 4 10 7 9 13 14
2 4 2 4 4 5 4 3 0 2 2 4 3 2 4 6 4 5 2 1 1 4 4 5 2 3 4 3 8 6 2 5 4 3 4 5 5 3 6 10 7 10 10 14 14
2 1 2 3 4 2 3 3 3 6 2 3 1 3 2 2 2 3 2 1 2 4 8 3 3 6 4 4 2 5 4 4 2 4 3 4 5 2 1 3 6 10 17 22 22
2 2 0 3 1 2 2 3 4 2 6 6 4 3 2 1 2 2 1 3 4 3 3 2 4 2 5 3 6 5 1 3 4 6 4 2 7 3 3 4 9 13 18 21 25
5 2 5 1 2 3 4 2 3 2 4 2 2 2 2 2 2 3 3 6 4 1 5 5 1 3 7 6 3 4 3 3 3 3 5 3 5 6 2 8 16 21 29 28 31
4 3 4 7 5 3 3 2 2 5 3 7 3 6 3 3 5 2 2 3 7 3 6 4 3 6 6 7 3 4 4 4 4 3 3 5 8 9 8 8 19 26 28 30 33
5 2 2 2 4 4 1 2 2 2 3 4 5 4 2 2 4 1 0 4 4 3 4 4 4 4 5 6 3 6 6 4 6 5 4 5 8 10 6 10 22 27 28 32 33
4 3 2 2 7 2 2 1 4 2 2 1 6 3 2 5 6 4 2 3 5 2 2 2 2 3 3 5 5 6 5 5 3 2 5 7 12 2 20 22 22 27 32 33 36
5 3 2 3 4 2 2 3 5 6 4 6 8 4 2 4 10 12 12 8 5 6 3 2 4 2 4 3 5 6 4 3 3 3 5 5 5 7 16 21 24 31 34 36 35
Wind_Direction
11 13 33 96 117 120 117 111 108 111 114 109 91 64 33 358 345 49 86 75 40 19 6 357 352 341 328 330 173 167 57 20 340 56 289 10 141 108 118 130 89 68 134 140 154
19 37 80 117 121 116 110 109 110 114 111 114 89 40 13 27 73 87 69 41 16 357 356 355 358 4 6 322 109 98 95 202 223 164 128 44 84 50 107 127 113 102 121 140 153
45 66 109 120 119 110 104 105 109 115 118 121 53 6 7 46 82 65 46 30 27 19 23 29 21 10 13 335 253 144 173 185 200 136 166 136 57 77 132 317 162 133 137 149 152
61 92 118 122 115 104 98 97 101 107 114 67 13 5 11 35 127 56 43 37 30 29 33 21 30 31 28 21 19 72 101 156 164 183 282 95 97 82 69 202 166 150 145 149 159
73 104 123 121 110 100 95 93 95 93 57 25 8 10 26 45 41 52 45 37 18 17 22 18 23 14 10 337 28 66 349 95 183 178 129 102 54 104 128 161 169 166 154 157 164
84 108 129 125 112 101 96 93 97 76 19 359 9 359 12 70 87 78 25 24 18 21 25 14 11 2 24 342 80 305 279 348 153 275 260 126 58 355 144 171 172 179 187 172 174
102 112 135 136 114 99 100 83 92 96 312 345 356 358 26 67 3 23 353 356 345 343 348 355 352 356 333 349 1 337 13 359 35 329 201 141 9 252 45 63 232 229 213 207 183
122 130 138 146 123 108 104 51 85 187 269 308 338 344 320 273 277 318 353 350 358 338 339 338 337 337 3 330 13 30 50 15 315 357 10 114 250 1 20 7 333 313 224 212 212
146 150 151 150 133 42 9 14 355 299 262 293 308 341 326 320 237 80 2 5 1 349 341 347 311 5 1 58 14 10 44 358 333 17 352 55 341 341 4 2 350 339 263 232 227
139 167 162 148 150 55 53 43 31 118 358 297 277 315 350 332 170 304 336 345 4 16 28 21 40 38 26 58 251 256 23 342 347 329 16 26 348 319 25 30 12 360 329 289 268
100 157 164 150 107 85 51 53 25 34 324 263 287 293 277 317 220 341 350 356 15 25 15 17 64 10 305 249 186 107 91 102 253 304 147 43 295 15 33 32 22 19 15 344 300
76 127 140 123 99 95 70 58 39 348 307 274 283 273 280 271 280 6 336 25 25 36 356 20 84 346 324 59 121 72 93 343 297 323 96 8 57 97 25 33 37 31 35 45 57
61 119 129 116 90 66 27 21 343 348 339 293 250 249 220 221 215 124 156 74 65 30 33 125 275 340 62 349 26 95 116 230 225 328 3 44 30 36 21 32 39 50 58 53 56
69 115 122 117 82 55 51 52 353 312 61 283 253 231 212 185 17 168 127 104 40 20 37 29 340 5 48 59 21 38 328 270 248 73 293 42 265 298 332 4 40 43 54 63 63
87 131 131 88 71 43 358 357 341 322 55 280 207 249 193 167 152 210 187 86 130 10 79 350 28 36 49 334 9 258 0 334 16 97 89 348 76 249 2 10 6 39 50 55 58
309 183 168 74 22 342 305 286 323 46 3 6 135 189 109 204 194 144 140 68 48 83 17 154 115 54 280 356 25 304 341 39 48 72 46 274 102 290 306 358 348 67 63 60 56
262 215 221 239 332 335 358 147 52 99 337 325 340 303 201 292 213 132 82 26 41 62 3 347 18 355 19 21 350 37 46 354 6 10 224 263 335 248 356 47 20 88 54 51 49
316 218 212 200 318 350 16 55 83 1 349 334 343 38 71 341 17 94 85 50 18 69 73 73 327 26 337 66 254 14 98 134 295 230 252 316 251 92 78 41 12 38 44 28 14
349 185 202 235 332 334 357 59 185 359 300 355 36 52 357 348 55 67 52 90 17 25 113 100 289 346 39 353 64 324 26 222 147 342 39 272 102 275 4 13 15 343 25 16 12
30 203 260 253 305 337 73 187 39 346 17 54 87 55 29 348 37 37 62 309 93 44 132 201 296 18 314 74 24 90 270 22 11 353 307 292 290 257 345 355 344 11 25 7 359
24 127 150 316 292 309 127 203 112 40 97 54 131 91 48 10 50 28 12 327 114 37 63 93 111 297 15 50 327 4 20 38 113 151 224 297 257 203 275 358 347 352 342 335 333
39 57 114 303 350 22 130 183 125 30 60 50 89 89 132 37 29 77 79 56 90 128 91 65 129 240 259 251 255 136 230 116 114 279 238 221 276 154 144 6 342 327 328 320 317
2 334 28 303 102 333 325 42 69 78 26 66 81 97 71 93 92 60 48 31 22 165 167 178 16 9 353 354 339 59 274 203 144 73 222 165 263 180 307 327 333 327 326 322 319
359 19 35 61 77 115 25 2 102 78 79 76 55 70 65 60 20 109 43 16 358 84 105 108 134 159 193 221 164 278 256 277 164 136 237 240 287 299 317 316 323 322 318 317 315
25 48 53 315 349 349 6 305 166 140 72 63 37 71 120 40 356 84 357 346 27 31 60 98 199 202 245 253 245 250 270 220 222 213 191 264 263 284 303 308 310 313 314 311 310
26 15 3 332 317 332 34 206 154 131 113 59 121 163 84 160 197 241 177 186 215 35 85 21 251 171 277 265 278 282 230 232 234 212 268 266 285 31 320 314 307 313 310 307 303
37 16 347 2 350 73 256 198 193 132 53 139 147 129 188 231 224 253 253 250 233 167 170 142 129 88 262 337 327 301 211 204 278 268 248 275 271 309 314 312 310 310 307 303 310